Weather observations for the past three days for
Point Hope, Point Hope Airport
Imperial (Metric)
Date Time (akdt) Wind (mph) Vis. (mi.) Weather Sky Cond. Temperature (ºF) Relative Humidity Wind Chill (°F) Heat Index (°F) Pressure Precipitation (in)
Air Dwpt 6 hour altimeter (in) sea level (mb) 1 hr 3 hr 6 hr
Max. Min.
06 08:56 N 10 9.00 Light Snow OVC010 19 16 88% 8 30.05 1017.5
06 07:56 N 9 9.00 Overcast OVC012 19 16 88% 9 30.04 1017.0
06 06:56 NW 8 9.00 Overcast OVC012 18 16 92% 9 30.03 1016.7
06 05:56 NW 7 9.00 Overcast OVC010 18 16 92% 10 30.02 1016.5
06 04:56 NW 8 9.00 Light Snow FEW010 OVC046 18 15.1 88% 9 30.02 1016.3
06 03:56 NW 7 7.00 Light Snow FEW029 BKN039 BKN048 18 15.1 19 17.1 88% 10 30.01 1016.2
06 02:56 NW 8 9.00 Light Snow OVC048 18 14 84% 9 30 1015.9
06 01:56 NW 9 9.00 Light Snow OVC011 18 15.1 88% 8 30 1015.8
06 00:56 NW 8 9.00 Light Snow OVC047 18 14 84% 9 29.99 1015.6
05 23:56 NW 8 9.00 Light Snow OVC015 19 14 81% 10 29.99 1015.4
05 22:56 NW 7 10.00 Overcast BKN013 OVC046 19 14 81% 11 29.99 1015.4
05 21:56 NW 8 10.00 Overcast BKN015 OVC048 19 14 23 19 81% 10 29.98 1015.0
05 20:56 NW 9 9.00 Light Snow OVC013 19.9 15.1 81% 10 29.98 1015.0
05 19:56 NW 7 9.00 Light Snow OVC013 19.9 15.1 81% 12 29.98 1014.9
05 18:56 NW 9 9.00 Light Snow OVC011 19.9 15.1 81% 10 29.97 1014.6
05 17:56 NW 9 9.00 Light Snow OVC009 21 16 81% 11 29.96 1014.5
05 16:56 NW 7 9.00 Light Snow OVC009 23 18 81% 16 29.96 1014.4
05 15:56 W 7 10.00 Overcast OVC007 21 16 21.9 17.1 81% 13 29.96 1014.4
05 14:56 NW 7 10.00 Overcast OVC005 19.9 16 85% 12 29.96 1014.5
05 13:56 W 9 10.00 Overcast OVC003 19 16 88% 9 29.96 1014.3
05 12:56 W 9 10.00 Overcast OVC003 18 16 92% 8 29.96 0.0
05 11:56 W 7 10.00 Overcast OVC003 18 16 92% 10 29.96 0.0
05 10:56 W 5 10.00 Overcast OVC003 18 16 92% 12 29.96 0.0
05 09:56 W 7 10.00 Overcast OVC005 18 16 18 16 92% 10 29.96 0.0
05 08:56 NW 5 10.00 Overcast OVC005 18 16 92% 12 29.96 0.0
05 07:56 NW 6 5.00 Fog/Mist OVC003 17.1 15.1 92% 10 29.96 0.0
05 06:56 W 6 0.25 Freezing Fog OVC003 16 14 92% 8 29.96 0.0
05 05:56 NW 5 0.75 Fog/Mist OVC003 16 14 92% 10 29.96 0.0
05 04:56 NW 6 9.00 Overcast OVC003 18 16 92% 11 29.96 0.0
05 03:56 W 5 10.00 Overcast OVC005 18 16 92% 12 29.97 0.0
05 02:56 W 7 10.00 Overcast OVC005 19 17.1 92% 11 29.98 0.0
05 01:56 NW 6 10.00 Overcast OVC005 19.9 17.1 89% 13 29.99 0.0
05 00:56 NW 3 10.00 Overcast OVC005 0 0 0% 30 0.0
04 23:56 W 5 10.00 Overcast OVC005 0 0 0% 30 0.0
04 22:56 W 10 10.00 Overcast OVC007 0 0 0% 30.01 0.0
04 21:56 SW 9 10.00 Overcast OVC007 0 0 0% 30.01 0.0
04 20:56 SW 12 10.00 Overcast OVC009 0 0 0% 30.01 0.0
04 19:56 SW 9 10.00 A Few Clouds FEW009 0 0 0% 30.02 0.0
04 18:56 SW 14 10.00 Mostly Cloudy BKN009 0 0 0% 30.03 0.0
04 17:56 S 12 10.00 Overcast OVC009 0 0 0% 30.04 0.0
04 16:56 SW 10 10.00 Partly Cloudy SCT009 0 0 0% 30.05 0.0
04 15:56 S 13 9.00 Light Snow BKN007 OVC048 0 0 0% 30.06 0.0
04 14:56 SW 12 4.00 Light Snow FEW008 0 0 0% 30.07 0.0
04 13:56 SW 10 2.50 Light Snow SCT008 OVC026 0 0 0% 30.08 0.0
04 12:56 SW 10 2.50 Light Snow FEW008 SCT025 BKN033 0 0 0% 30.08 0.0
04 11:56 SW 10 1.50 Light Snow SCT020 OVC027 0 0 0% 30.09 0.0
04 10:56 SW 10 5.00 Light Snow FEW008 BKN027 OVC032 0 0 0% 30.09 0.0
04 09:56 SW 10 2.00 Light Snow SCT026 OVC030 0 0 0% 30.08 0.0
04 07:56 SW 10 3.00 Light Snow FEW027 BKN033 0 0 0% 30.07 0.0
04 06:56 SW 9 3.00 Light Snow FEW026 BKN034 OVC046 0 0 0% 30.07 0.0
04 05:56 S 7 10.00 Overcast FEW011 OVC090 0 0 0% 30.07 0.0
04 04:56 SW 10 10.00 Overcast OVC090 0 0 0% 30.06 0.0
04 03:56 W 8 10.00 Overcast SCT044 OVC085 0 0 0% 30.05 0.0
04 02:56 W 10 8.00 Light Snow SCT039 BKN047 0 0 0% 30.05 0.0
04 01:56 W 12 8.00 Light Snow FEW010 BKN025 BKN050 0 0 0% 30.04 0.0
04 00:56 W 9 9.00 Light Snow BKN010 OVC018 0 0 0% 30.03 0.0
03 23:56 SW 8 9.00 Light Snow FEW017 OVC049 0 0 0% 30.02 0.0
03 22:56 SW 8 9.00 Light Snow FEW015 BKN035 OVC047 0 0 0% 30.01 0.0
03 21:56 SW 10 6.00 Light Snow OVC012 0 0 0% 30 0.0
03 20:56 SW 9 4.00 Light Snow OVC025 0 0 0% 30 0.0
03 19:56 S 12 3.00 Light Snow OVC025 0 0 0% 30 0.0
03 18:56 S 10 9.00 Light Snow OVC032 0 0 0% 29.99 0.0
03 17:56 SW 10 9.00 Light Snow OVC034 0 0 0% 29.99 0.0
03 16:56 SW 12 9.00 Light Snow BKN014 OVC033 0 0 0% 29.99 0.0
03 15:56 S 12 9.00 Light Snow OVC014 0 0 0% 29.99 0.0
03 14:56 S 12 9.00 Light Snow OVC009 0 0 0% 29.99 0.0
03 12:56 SW 14 4.00 Light Snow Fog/Mist OVC012 23 19.9 88% 11 29.98 1015.0
03 11:56 SW 13 9.00 Light Snow FEW014 OVC023 21.9 18 85% 11 29.96 1014.4
03 10:56 SW 15 9.00 Light Snow SCT012 OVC039 19 16 88% 6 29.95 1014.1
03 09:56 SW 16 10.00 Mostly Cloudy BKN037 18 16 19 16 92% 4 29.93 1013.3
Date Time (akdt) Wind (mph) Vis. (mi.) Weather Sky Cond. Air Dwpt Max. Min. Relative Humidity Wind Chill (°F) Heat Index (°F) altimeter (in) sea level (mb) 1 hr 3 hr 6 hr
6 hour
Temperature (ºF) Pressure Precipitation (in)